{"data":{"norad_id":56004,"intl_designator":"2023-042U","name":"STARLINK-5787","alt_names":[],"object_type":"PAYLOAD","status":"ACTIVE","operator":null,"country":"US","launch_date":"2023-03-24","launch_site_code":"AFETR","launch_vehicle":null,"mission":null,"orbit_class":"UNKNOWN","rcs_meters":null,"size_class":null,"mass_kg":null,"dimensions":null,"purposes":["comms"],"wikipedia_slug":null,"has_3d_model":false,"image_url":null,"decayed_at":null,"tle_current":{"epoch":"2026-05-24T23:10:01.579584Z","epoch_age_seconds":81559,"freshness":"FRESH","line1":"1 56004U 23042U   26144.96529606 -.00000695  00000+0 -15732-4 0  9999","line2":"2 56004  43.0061 352.3541 0001647 264.1598  95.9066 15.27575012174492","mean_motion":15.27575012,"eccentricity":0.0001647,"inclination_deg":43.0061,"raan_deg":352.3541,"arg_perigee_deg":264.1598,"mean_anomaly_deg":95.9066,"bstar":-1.5732e-5,"rev_number":17449,"period_min":94.267056523441,"perigee_km":481.93399213676,"apogee_km":484.19407175668,"semimajor_km":6861.2010319467,"source":"CELESTRAK","updated_at":"2026-05-25T13:38:17.925037Z"}}}